Flag for U.S.A. Weather past 2 weeks in Vallejo, California, U.S.A.

Now
55 °F

Light rain. Overcast.


Feels Like: 53 °F
Forecast: 48 / 56 °F
Wind: 7 mph from East

Location: Napa County Airport

Current Time: Dec 18, 2014 at 12:46:22 PM

Latest Report: Dec 18, 2014 at 11:54 AM


Visibility: 10 mi

Pressure: 30.14 "Hg

Humidity: 87%

Dew point: 51 °F

Location of VallejoLocation

Historic Weather in Vallejo — Graph

°F

Vallejo temperature yesterday

Maximum temperature yesterday: 56 °F (at 12:54 PM)
Minimum temperature yesterday: 44 °F (at 12:54 AM)
Average temperature yesterday: 51 °F

Past Weeks' High & Low Weather Summary

 TemperatureHumidityPressure
High64 °F (Dec 4, 11:54 AM)100% (Dec 3, 10:54 PM)30.23 "Hg (Dec 3, 10:54 PM)
Low39 °F (Dec 13, 5:54 AM)67% (Dec 16, 2:54 PM)29.47 "Hg (Dec 11, 6:54 AM)
Average54 °F94%29.98 "Hg
* Reported Dec 3 11:54 AM — Dec 18 11:54 AM, Vallejo, Weather by CustomWeather, © 2014

Note: Actual official high and low records may vary slightly from our data, if they occured in-between our weather recording intervals... More about our weather records

Advertising

Vallejo weather history for previous 24 hours

 ConditionsComfort  
Time TempWeatherWind HumidityBarometerVisibility
11:54 AM
Dec 18
55 °FLight rain. Overcast.7 mph87%30.14 "Hg10 mi
10:54 AM54 °FLight rain. Overcast.No wind90%30.17 "Hg10 mi
9:54 AM53 °FLight rain. Mostly cloudy.6 mph93%30.15 "Hg10 mi
8:54 AM52 °FLight rain. Mostly cloudy.5 mph93%30.13 "Hg10 mi
7:54 AM50 °FLight rain. Overcast.5 mph96%30.11 "Hg10 mi
6:54 AM51 °FLight rain. Overcast.7 mph89%30.09 "Hg9 mi
5:54 AM51 °FOvercast.7 mph89%30.08 "Hg10 mi
4:54 AM50 °FLight rain. Overcast.9 mph93%30.07 "Hg10 mi
3:54 AM50 °FLight rain. Overcast.13 mph93%30.06 "Hg10 mi
2:54 AM50 °FLight rain. Overcast.13 mph93%30.05 "Hg10 mi
1:54 AM50 °FLight rain. Overcast.14 mph93%30.05 "Hg10 mi
12:54 AM50 °FLight rain. Overcast.10 mph93%30.05 "Hg10 mi
11:54 PM
Dec 17
50 °FLight rain. Mostly cloudy.10 mph93%30.05 "Hg8 mi
10:54 PM51 °FLight rain. Mostly cloudy.13 mph89%30.04 "Hg10 mi
9:54 PM50 °FLight rain. Mostly cloudy.9 mph93%30.04 "Hg10 mi
8:54 PM51 °FLight rain. Overcast.8 mph92%30.04 "Hg10 mi
7:54 PM51 °FLight rain. Mostly cloudy.6 mph92%30.04 "Hg10 mi
6:54 PM51 °FLight rain. Overcast.3 mph96%30.03 "Hg9 mi
6:03 PM52 °FLight rain. Fog.5 mph97%30.04 "Hg6 mi
5:54 PM52 °FLight rain. Overcast.3 mph97%30.02 "Hg7 mi
4:54 PM52 °FLight rain. Mostly cloudy.3 mph97%30.01 "Hg10 mi
3:54 PM53 °FLight rain. Fog.6 mph93%30.01 "Hg6 mi
2:54 PM56 °FPartly sunny.6 mph81%29.98 "Hg10 mi
1:54 PM56 °FPartly sunny.7 mph84%29.98 "Hg10 mi
12:54 PM56 °FScattered clouds.10 mph84%30.01 "Hg10 mi
Weather by CustomWeather, © 2014

See weather overviewHow to use our weather pages